Вернуться в каталог

STARLINK-35848

АктивенСвязьVLEO
NORAD 66349·PAYLOAD·🇺🇸 United States

Запущен Nov 6, 2025 с Vandenberg Space Force Base

Loading…

Ближайшие Пролёты (ближайшие 24 часа)

TLE

СвежийSource: CelesTrak SupGP

Эпоха: Sep 15, 2026, 03:21 UTC

1 66349C 25254B   26258.14006944 -.00027591  00000+0 -88730-3 0  2589
2 66349  53.1571  71.3583 0001228  91.3662  35.4783 15.31714562    15

Отслеживайте STARLINK-35848 в реальном времени с AllMySat

Download on the App Store